Total_Precipitation_Accumulation
0.11 0.14 0.20 0.38 0.50 0.41 0.31 0.28 0.36 0.36 0.36 0.40 0.47 0.58 0.56 0.49 0.44 0.42 0.42 0.40 0.40 0.39 0.36 0.36 0.37 0.38 0.47 0.61 0.76 0.96 1.17 1.18 1.03 0.95 0.87 0.74 0.68 0.66 0.62 0.65 0.61 0.63 0.73 0.84
0.05 0.06 0.10 0.19 0.22 0.17 0.10 0.14 0.25 0.31 0.38 0.42 0.48 0.55 0.52 0.44 0.36 0.29 0.27 0.27 0.27 0.25 0.23 0.18 0.17 0.19 0.21 0.31 0.48 0.65 0.82 0.91 0.88 0.79 0.68 0.65 0.63 0.60 0.57 0.55 0.51 0.51 0.55 0.62
0.06 0.05 0.07 0.14 0.13 0.13 0.16 0.15 0.17 0.27 0.39 0.46 0.59 0.77 0.68 0.51 0.42 0.29 0.22 0.22 0.22 0.21 0.21 0.19 0.18 0.18 0.18 0.23 0.29 0.39 0.52 0.62 0.63 0.57 0.50 0.47 0.50 0.50 0.47 0.42 0.44 0.42 0.42 0.42
0.12 0.13 0.25 0.26 0.20 0.27 0.34 0.26 0.22 0.29 0.37 0.50 0.84 1.04 0.66 0.43 0.39 0.32 0.22 0.20 0.20 0.20 0.19 0.16 0.15 0.14 0.16 0.18 0.20 0.22 0.27 0.32 0.34 0.35 0.35 0.35 0.37 0.37 0.37 0.37 0.37 0.36 0.41 0.47
0.17 0.20 0.43 0.37 0.19 0.31 0.37 0.31 0.25 0.32 0.37 0.40 0.46 0.41 0.25 0.15 0.16 0.18 0.13 0.11 0.10 0.10 0.09 0.07 0.07 0.07 0.08 0.09 0.10 0.10 0.11 0.14 0.16 0.19 0.22 0.27 0.29 0.33 0.42 0.44 0.41 0.41 0.51 0.57
0.13 0.16 0.28 0.28 0.11 0.17 0.26 0.32 0.14 0.14 0.16 0.11 0.07 0.09 0.11 0.10 0.07 0.06 0.04 0.03 0.03 0.03 0.03 0.02 0.02 0.03 0.03 0.04 0.05 0.06 0.06 0.07 0.09 0.11 0.13 0.18 0.23 0.26 0.27 0.29 0.34 0.41 0.43 0.40
0.08 0.10 0.10 0.06 0.06 0.11 0.26 0.29 0.08 0.04 0.03 0.01 0.01 0.01 0.06 0.10 0.06 0.03 0.02 0.01 0.01 0.01 0.01 0.01 0.01 0.02 0.02 0.02 0.03 0.04 0.06 0.08 0.11 0.11 0.11 0.12 0.11 0.09 0.12 0.17 0.19 0.21 0.22 0.27
0.05 0.07 0.05 0.03 0.06 0.12 0.11 0.06 0.03 0.02 0.01 0.01 0.01 0.01 0.02 0.05 0.04 0.02 0.01 0.01 0.01 0.01 0.01 0.01 0.01 0.01 0.02 0.02 0.03 0.03 0.05 0.07 0.08 0.07 0.06 0.07 0.07 0.06 0.07 0.10 0.12 0.15 0.17 0.23
0.04 0.05 0.04 0.03 0.05 0.04 0.03 0.02 0.01 0.01 0.01 0.01 0.01 0.00 0.00 0.02 0.02 0.01 0.00 0.01 0.01 0.01 0.02 0.01 0.02 0.02 0.02 0.03 0.03 0.03 0.04 0.06 0.06 0.06 0.07 0.06 0.05 0.06 0.06 0.07 0.09 0.11 0.16 0.22
0.04 0.03 0.03 0.03 0.03 0.02 0.02 0.02 0.01 0.01 0.01 0.01 0.01 0.00 0.00 0.01 0.02 0.01 0.00 0.01 0.01 0.01 0.02 0.02 0.02 0.03 0.03 0.04 0.04 0.05 0.05 0.05 0.07 0.07 0.08 0.07 0.06 0.07 0.06 0.06 0.08 0.12 0.19 0.26
0.03 0.03 0.03 0.03 0.02 0.01 0.01 0.01 0.00 0.01 0.01 0.00 0.00 0.00 0.00 0.01 0.01 0.01 0.01 0.01 0.01 0.01 0.01 0.02 0.03 0.03 0.03 0.04 0.03 0.03 0.04 0.06 0.06 0.08 0.09 0.06 0.05 0.06 0.06 0.06 0.09 0.14 0.18 0.22
0.04 0.03 0.03 0.03 0.02 0.02 0.02 0.01 0.01 0.01 0.01 0.01 0.00 0.01 0.01 0.00 0.01 0.01 0.01 0.01 0.01 0.01 0.01 0.02 0.03 0.03 0.04 0.04 0.04 0.03 0.04 0.05 0.06 0.06 0.06 0.06 0.07 0.06 0.05 0.05 0.06 0.07 0.08 0.12
0.03 0.04 0.03 0.02 0.02 0.03 0.03 0.01 0.01 0.01 0.01 0.01 0.01 0.01 0.01 0.01 0.01 0.01 0.01 0.01 0.01 0.01 0.01 0.02 0.04 0.03 0.04 0.05 0.05 0.04 0.04 0.05 0.05 0.04 0.04 0.05 0.07 0.11 0.12 0.09 0.05 0.04 0.05 0.09
0.02 0.03 0.03 0.03 0.02 0.03 0.03 0.01 0.01 0.01 0.01 0.00 0.01 0.01 0.01 0.01 0.01 0.01 0.00 0.00 0.01 0.01 0.01 0.02 0.03 0.03 0.03 0.03 0.03 0.04 0.04 0.03 0.04 0.05 0.05 0.06 0.06 0.11 0.22 0.27 0.22 0.11 0.07 0.08
0.01 0.02 0.03 0.03 0.02 0.02 0.02 0.01 0.01 0.01 0.01 0.01 0.01 0.01 0.01 0.01 0.01 0.01 0.01 0.01 0.01 0.01 0.01 0.02 0.02 0.03 0.03 0.03 0.03 0.03 0.04 0.04 0.07 0.10 0.09 0.07 0.07 0.15 0.20 0.14 0.13 0.15 0.13 0.10
0.01 0.01 0.02 0.03 0.03 0.03 0.03 0.02 0.01 0.01 0.01 0.01 0.01 0.01 0.01 0.01 0.02 0.02 0.02 0.02 0.01 0.01 0.01 0.02 0.02 0.02 0.03 0.03 0.02 0.02 0.02 0.04 0.06 0.12 0.13 0.07 0.08 0.12 0.11 0.10 0.12 0.14 0.15 0.15
0.01 0.01 0.02 0.03 0.04 0.03 0.03 0.02 0.01 0.01 0.01 0.01 0.01 0.01 0.01 0.01 0.01 0.02 0.02 0.02 0.02 0.01 0.01 0.02 0.02 0.02 0.03 0.04 0.03 0.03 0.02 0.03 0.04 0.07 0.09 0.08 0.08 0.10 0.08 0.09 0.12 0.13 0.13 0.14
0.02 0.02 0.02 0.03 0.04 0.03 0.03 0.02 0.01 0.01 0.01 0.01 0.01 0.01 0.01 0.01 0.01 0.01 0.02 0.02 0.01 0.01 0.01 0.02 0.02 0.03 0.03 0.04 0.04 0.03 0.03 0.03 0.03 0.05 0.07 0.06 0.07 0.10 0.11 0.10 0.10 0.12 0.14 0.14
0.02 0.02 0.02 0.02 0.03 0.03 0.03 0.02 0.02 0.01 0.01 0.01 0.01 0.01 0.01 0.01 0.01 0.01 0.02 0.02 0.01 0.01 0.01 0.02 0.02 0.02 0.03 0.04 0.05 0.04 0.04 0.04 0.04 0.05 0.07 0.06 0.06 0.08 0.12 0.14 0.13 0.14 0.15 0.15
0.02 0.02 0.02 0.02 0.02 0.03 0.03 0.02 0.02 0.02 0.02 0.02 0.01 0.01 0.01 0.02 0.01 0.01 0.02 0.02 0.01 0.02 0.02 0.03 0.03 0.03 0.04 0.04 0.05 0.05 0.04 0.04 0.05 0.06 0.07 0.08 0.08 0.09 0.10 0.12 0.15 0.18 0.19 0.18
0.03 0.03 0.02 0.02 0.02 0.02 0.03 0.02 0.02 0.02 0.02 0.02 0.02 0.02 0.02 0.02 0.02 0.02 0.02 0.02 0.02 0.03 0.03 0.04 0.04 0.04 0.05 0.07 0.08 0.07 0.06 0.06 0.07 0.08 0.11 0.12 0.13 0.14 0.14 0.15 0.18 0.22 0.20 0.20
0.03 0.02 0.02 0.02 0.01 0.02 0.02 0.02 0.02 0.03 0.02 0.02 0.02 0.02 0.02 0.02 0.03 0.03 0.03 0.04 0.04 0.05 0.06 0.07 0.06 0.07 0.11 0.14 0.11 0.09 0.09 0.10 0.12 0.13 0.16 0.18 0.19 0.19 0.19 0.19 0.21 0.21 0.20 0.22
0.02 0.02 0.01 0.01 0.01 0.02 0.02 0.02 0.03 0.02 0.02 0.02 0.02 0.02 0.02 0.02 0.03 0.04 0.04 0.04 0.06 0.08 0.08 0.09 0.10 0.13 0.18 0.14 0.12 0.13 0.13 0.14 0.16 0.17 0.19 0.22 0.24 0.25 0.26 0.26 0.26 0.24 0.24 0.26
0.03 0.03 0.03 0.03 0.03 0.04 0.04 0.04 0.04 0.03 0.03 0.03 0.02 0.02 0.03 0.04 0.04 0.05 0.05 0.06 0.07 0.09 0.09 0.11 0.14 0.17 0.19 0.14 0.13 0.13 0.15 0.16 0.17 0.18 0.21 0.25 0.28 0.28 0.28 0.28 0.27 0.26 0.27 0.28
0.05 0.05 0.06 0.06 0.05 0.05 0.05 0.05 0.05 0.05 0.04 0.04 0.04 0.04 0.05 0.05 0.07 0.08 0.09 0.09 0.10 0.11 0.12 0.14 0.16 0.17 0.16 0.15 0.16 0.16 0.18 0.20 0.22 0.24 0.25 0.26 0.28 0.30 0.30 0.31 0.32 0.33 0.32 0.33
0.07 0.07 0.07 0.07 0.07 0.07 0.07 0.07 0.08 0.07 0.08 0.08 0.08 0.08 0.09 0.09 0.09 0.10 0.12 0.14 0.16 0.17 0.17 0.19 0.21 0.21 0.20 0.20 0.21 0.22 0.22 0.24 0.26 0.26 0.27 0.29 0.31 0.32 0.33 0.34 0.34 0.36 0.38 0.39
0.11 0.10 0.10 0.09 0.09 0.10 0.11 0.11 0.12 0.12 0.12 0.12 0.11 0.11 0.12 0.14 0.14 0.14 0.15 0.17 0.20 0.22 0.22 0.23 0.25 0.27 0.28 0.29 0.30 0.29 0.28 0.27 0.28 0.29 0.31 0.34 0.35 0.36 0.36 0.37 0.37 0.38 0.40 0.41